Weather History for Selinsgrove, PA

Change the Weather History Date:

Friday, November 25, 2011

  Actual Average (KIPT) Record (KIPT)
Temperature  
Mean Temperature 46 °F 38 °F  
Max Temperature 64 °F 46 °F 67 °F (1979)
Min Temperature 28 °F 31 °F 14 °F (1956)
Degree Days  
Heating Degree Days 19 27  
Month to date heating degree days 562  
Since 1 July heating degree days 1105  
Cooling Degree Days 0 0  
Month to date cooling degree days 0  
Year to date cooling degree days 702  
Moisture  
Dew Point 32 °F    
Average Humidity 82    
Maximum Humidity 100    
Minimum Humidity 34    
Precipitation  
Precipitation 0.01 in 0.13 in 2.44 in (1950)
Month to date precipitation 3.08  
Year to date precipitation 37.69  
Snow  
Snow 0.00 in - - ()
Month to date snowfall  
Since 1 July snowfall  
Since 1 September snowfall  
Snow Depth -    
Sea Level Pressure  
Sea Level Pressure 30.21 in    
Wind  
Wind Speed 1 mph (SW)    
Max Wind Speed 8 mph    
Max Gust Speed -    
Visibility 6 miles    
Events Fog    
T = Trace of Precipitation, MM = Missing Value Source: NWS Daily Summary

Daily Weather History Graph

Daily Weather History Graph

Search for Another Location

Airport:

Trip Planner

Search our weather history database for the weather conditions in past years. The results will help you decide how hot, cold, wet, or windy it might be!

Date:

Astronomy

Nov. 25, 2011 Rise Set
Actual Time 7:05 AM EST 4:42 PM EST
Civil Twilight 6:35 AM EST 5:12 PM EST
Nautical Twilight 6:01 AM EST 5:46 PM EST
Astronomical Twilight 5:29 AM EST 6:19 PM EST
Moon 7:31 AM EST (11/25) 5:07 PM EST (11/25)
Length of Visible Light 10h 37m
Length of Day
9h 37m
New Moon, 0% of the Moon is Illuminated
Nov 25
New Moon
Dec 2
First Quarter
Dec 10
Full
Dec 17
Last Quarter
Dec 24
New

Hourly Weather History & Observations

Time (EST) Temp. Dew Point Humidity Pressure Visibility Wind Dir Wind Speed Gust Speed Precip Events Conditions
12:53 AM 28.9 °F 28.0 °F 96% 30.24 in 4.0 mi Calm Calm - N/A   Clear
2:06 AM 28.4 °F 28.4 °F 100% 30.23 in 2.5 mi Calm Calm - N/A   Clear
2:32 AM 28.4 °F 26.6 °F 93% 30.23 in 2.5 mi Calm Calm - N/A   Scattered Clouds
2:48 AM 28.4 °F 28.4 °F 100% 30.23 in 2.5 mi Calm Calm - N/A   Mostly Cloudy
3:08 AM 30.2 °F 28.4 °F 93% 30.23 in 1.5 mi Calm Calm - N/A   Overcast
4:53 AM 30.0 °F 28.9 °F 96% 30.25 in 0.2 mi Calm Calm - N/A Fog Light Freezing Fog
5:53 AM 28.9 °F 27.0 °F 92% 30.25 in 0.2 mi Calm Calm - N/A Fog Light Freezing Fog
7:06 AM 28.4 °F 26.6 °F 93% 30.24 in 1.2 mi Calm Calm - N/A   Scattered Clouds
7:17 AM 28.4 °F 26.6 °F 93% 30.24 in 2.0 mi Calm Calm - N/A   Scattered Clouds
7:34 AM 30.2 °F 28.4 °F 93% 30.24 in 3.0 mi Calm Calm - N/A   Clear
7:53 AM 30.9 °F 30.0 °F 96% 30.27 in 2.5 mi Calm Calm - N/A   Clear
8:21 AM 32.0 °F 32.0 °F 100% 30.25 in 3.0 mi Calm Calm - N/A   Clear
8:53 AM 35.1 °F 34.0 °F 96% 30.27 in 4.0 mi Calm Calm - 0.01 in   Clear
9:53 AM 42.1 °F 37.0 °F 82% 30.26 in 8.0 mi Calm Calm - N/A   Clear
10:53 AM 50.0 °F 39.0 °F 66% 30.24 in 10.0 mi SE 3.5 mph - N/A   Clear
11:53 AM 60.1 °F 37.9 °F 44% 30.21 in 10.0 mi WSW 8.1 mph - N/A   Clear
12:53 PM 62.1 °F 36.0 °F 38% 30.18 in 10.0 mi WSW 5.8 mph - N/A   Clear
1:53 PM 64.0 °F 35.1 °F 34% 30.16 in 10.0 mi WSW 5.8 mph - N/A   Clear
2:53 PM 64.0 °F 35.1 °F 34% 30.15 in 10.0 mi SSW 5.8 mph - N/A   Clear
4:53 PM 48.0 °F 36.0 °F 63% 30.14 in 10.0 mi Calm Calm - N/A   Clear
5:53 PM 42.1 °F 35.1 °F 76% 30.16 in 10.0 mi Calm Calm - N/A   Clear
6:53 PM 39.0 °F 35.1 °F 86% 30.15 in 10.0 mi Calm Calm - N/A   Clear
7:53 PM 37.9 °F 35.1 °F 89% 30.16 in 10.0 mi Calm Calm - N/A   Clear
8:53 PM 35.1 °F 32.0 °F 89% 30.17 in 10.0 mi Calm Calm - N/A   Clear
10:53 PM 30.9 °F 30.0 °F 96% 30.18 in 10.0 mi Calm Calm - N/A   Clear
11:53 PM 32.0 °F 30.0 °F 92% 30.19 in 10.0 mi Calm Calm - N/A   Clear